This is the latest recevied weather packets stored in our database for station/object KA2FNK. If no packets are shown the sender has not sent any weather packets the latest 10 day(s).
| Time | Temp. | Humidity | Pressure | Rain* | Wind** | Luminosity | Snow |
|---|---|---|---|---|---|---|---|
| 1778078915 | 11.11° C | 58% | 1018.4 hPa | 0.25 mm | - | - | - |
| 1778078614 | 11.11° C | 58% | 1018.4 hPa | 0.25 mm | - | - | - |
| 1778078312 | 11.11° C | 60% | 1018.4 hPa | 0 mm | - | - | - |
| 1778078011 | 10.56° C | 60% | 1018.3 hPa | 0 mm | - | - | - |
| 1778077710 | 10.56° C | 61% | 1018.3 hPa | 0 mm | - | - | - |
| 1778077409 | 10.56° C | 61% | 1018.4 hPa | 0 mm | - | - | - |
| 1778077108 | 10.56° C | 61% | 1018.4 hPa | 0 mm | - | - | - |
| 1778076808 | 10.56° C | 63% | 1018.2 hPa | 0 mm | - | - | - |
| 1778076507 | 10.56° C | 62% | 1018.2 hPa | 0 mm | - | - | - |
| 1778076206 | 10.56° C | 64% | 1018.1 hPa | 0 mm | - | - | - |
| 1778075905 | 10° C | 63% | 1018 hPa | 0 mm | - | - | - |
| 1778075604 | 10° C | 64% | 1017.8 hPa | 0 mm | - | - | - |
| 1778075302 | 10° C | 66% | 1017.8 hPa | 0 mm | - | - | - |
| 1778075001 | 10° C | 66% | 1017.5 hPa | 0 mm | - | - | - |
| 1778074700 | 10° C | 64% | 1017.6 hPa | 0 mm | - | - | - |
| 1778074399 | 10° C | 67% | 1017.6 hPa | 0 mm | - | - | - |
| 1778074099 | 9.44° C | 70% | 1017.5 hPa | 0 mm | - | - | - |
| 1778073797 | 9.44° C | 69% | 1017.4 hPa | 0 mm | - | - | - |
| 1778073497 | 9.44° C | 73% | 1017.4 hPa | 0 mm | - | - | - |
| 1778073196 | 9.44° C | 73% | 1017.2 hPa | 0 mm | - | - | - |
| 1778072894 | 8.89° C | 76% | 1017.2 hPa | 0 mm | - | - | - |
| 1778072594 | 8.89° C | 76% | 1017.1 hPa | 0 mm | - | - | - |
| 1778072292 | 8.33° C | 79% | 1017.1 hPa | 0 mm | - | - | - |
| 1778071991 | 8.33° C | 81% | 1017.1 hPa | 0 mm | - | - | - |
| 1778071691 | 8.33° C | 84% | 1017 hPa | 0 mm | - | - | - |
* Rain latest hour (hover to see other rain measurements)
** Current wind speed in m/s (hover to see current wind gust speed)